www.pogodaiklimat.ru

Погода и климат >> Архив погоды >> Норвегия >> Хамар аэропорт


ПОГОДА в Хамар аэропорту

  • Прогноз погоды в Хамар аэропорту
  • Монитор погоды в Хамар аэропорту

АРХИВ ПОГОДЫ в Хамар аэропорту

Время (UTC), дата Ветер
(напр.,м/с)
 
Видим.   Явления Облачность Т
(С)
Тd
(С)
f
(%)
Тe
(С)
Тes
(С)
Комфортность P
(гПа)
Po
(гПа)
Тmin
(С)
Tmax
(С)
R
(мм)
R24
(мм)
S
(см)
10 10.07 ЮЗ 2
{5}
н/о н/о +20.1 +8.5 47 +22 +22 комфорт 1014.2 988.4
11 10.07 Ю 3
{6}
н/о н/о +21.5 +8.1 42 +23 +23 комфорт 1013.7 988.0
12 10.07 Ю 4
{6}
н/о н/о +22.4 +6.6 36 +23 +23 комфорт 1013.3 987.7
13 10.07 Ю 4
{6}
н/о н/о +22.8 +6.6 35 +23 +23 комфорт 1012.9 987.4
14 10.07 Ю 3
{6}
н/о н/о +22.4 +6.6 36 +23 +23 комфорт 1012.4 986.9
15 10.07 Ю 4
{5}
н/о н/о +23.4 +6.7 34 +24 +24 комфорт 1012.0 986.5
16 10.07 Ю 3
{5}
н/о н/о +23.7 +6.5 33 +24 +24 комфорт 1011.6 986.2
17 10.07 Ю 3
{5}
н/о н/о +23.6 +5.5 31 +24 +24 комфорт 1011.4 986.0
18 10.07 Ю 2
{6}
н/о н/о +23.6 +5.5 31 +24 +24 комфорт 1011.3 985.9 +14.8 +24.0
19 10.07 Ю 2
{3}
н/о н/о +22.3 +5.7 34 +23 +23 комфорт 1011.2 985.7
20 10.07 С 1
{2}
н/о н/о +20.7 +8.0 44 +23 +23 комфорт 1011.4 985.7
21 10.07 СЗ 1
{2}
н/о н/о +19.1 +7.5 47 +21 +21 комфорт 1011.5 985.7
22 10.07 СЗ 1
{2}
н/о н/о +17.1 +7.2 52 +18 +18 1011.7 985.7
23 10.07 штиль 0
{2}
н/о н/о +16.2 +9.6 65 +16 +16 1011.9 985.8
00 11.07 Ю 1
{4}
н/о н/о +16.1 +8.4 60 +17 +17 1011.9 985.8
01 11.07 ЮЗ 2
{3}
н/о н/о +15.2 +8.7 65 +15 +15 1012.1 985.9
02 11.07 З 1
{4}
н/о н/о +13.4 +10.0 80 +14 +14 1012.2 985.9
03 11.07 В 1
{1}
н/о н/о +12.6 +9.3 80 +13 +13 1012.2 985.8
04 11.07 ЮВ 1
{1}
н/о н/о +13.2 +10.9 86 +13 +13 1012.1 985.8
05 11.07 С 1
{1}
н/о н/о +13.0 +10.7 86 +13 +13 1012.2 985.8
06 11.07 СВ 1
{4}
н/о н/о +14.5 +12.4 87 +15 +15 1011.9 985.7 +12.0 +23.6
07 11.07 СВ 1
{2}
н/о н/о +16.5 +11.9 74 +17 +17 1011.6 985.6
08 11.07 Ю 1
{2}
н/о н/о +18.3 +10.9 62 +20 +20 1011.4 985.5
09 11.07 Ю 2
{3}
н/о н/о +20.1 +9.4 50 +22 +22 комфорт 1010.9 985.2
10 11.07 Ю 2
{4}
н/о н/о +21.4 +5.7 36 +22 +22 комфорт 1010.4 984.8
11 11.07 Ю 2
{5}
н/о н/о +23.0 +5.0 31 +23 +23 комфорт 1009.7 984.3
12 11.07 Ю 3
{6}
н/о н/о +24.2 +5.6 30 +24 +24 комфорт 1009.2 983.9
13 11.07 Ю 3
{5}
н/о н/о +24.6 +5.9 30 +24 +24 комфорт 1008.9 983.6
14 11.07 ЮЗ 3
{6}
н/о н/о +25.7 +5.3 27 +25 +25 комфорт 1008.3 983.2
15 11.07 ЮЗ 2
{4}
н/о н/о +24.5 +5.8 30 +24 +24 комфорт 1008.3 983.0
16 11.07 Ю 1
{3}
н/о н/о +24.8 +4.0 26 +24 +24 комфорт 1008.1 982.9
17 11.07 ЮЗ 2
{4}
н/о н/о +24.4 +6.2 31 +24 +24 комфорт 1007.9 982.6
18 11.07 З 1
{6}
н/о н/о +23.3 +8.2 38 +24 +24 комфорт 1007.8 982.5 +14.5 +26.2
19 11.07 ЮЗ 1
{3}
н/о н/о +21.2 +10.1 49 +23 +23 комфорт 1007.9 982.4
20 11.07 ЮЗ 2
{2}
н/о н/о +20.5 +10.3 52 +23 +23 комфорт 1008.1 982.5
21 11.07 штиль 0
{2}
н/о н/о +18.5 +10.1 58 +19 +19 1008.7 982.9
22 11.07 Ю 2
{2}
н/о н/о +17.6 +10.5 63 +18 +18 1009.2 983.3
23 11.07 СЗ 2
{2}
н/о н/о +15.0 +9.8 71 +15 +15 1009.5 983.4
00 12.07 С 1
{3}
н/о н/о +14.7 +9.9 73 +15 +15 1009.5 983.4
01 12.07 С 2
{2}
н/о н/о +13.9 +9.9 77 +13 +13 1009.7 983.5
02 12.07 В 1
{3}
н/о н/о +13.8 +10.2 79 +14 +14 1009.8 983.6
03 12.07 В 1
{2}
н/о н/о +13.9 +9.9 77 +14 +14 1010.0 983.8
04 12.07 С 1
{2}
н/о н/о +14.2 +10.4 78 +15 +15 1010.2 984.0
05 12.07 штиль 0
{2}
н/о н/о +14.3 +11.3 82 +14 +14 1010.3 984.1
06 12.07 В 1
{3}
н/о н/о +14.8 +11.8 82 +15 +15 1010.6 984.4 +13.4 +24.5
07 12.07 Ю 1
{2}
н/о н/о +15.4 +12.2 81 +16 +16 1010.6 984.5
08 12.07 СВ 1
{4}
н/о н/о +17.7 +12.2 70 +19 +19 1010.3 984.4 0.1
09 12.07 Ю 2
{4}
н/о н/о +18.5 +11.1 62 +19 +19 1010.0 984.2
10 12.07 ЮВ 2
{4}
н/о н/о +20.1 +11.6 58 +22 +22 комфорт 1009.6 983.9
11 12.07 Ю 2
{4}
н/о н/о +21.8 +11.5 52 +24 +24 комфорт 1009.1 983.6
12 12.07 Ю 1
{4}
н/о н/о +22.4 +10.9 48 +24 +24 комфорт 1008.8 983.4
13 12.07 ЮВ 2
{4}
н/о н/о +24.2 +10.8 43 +25 +25 комфорт 1008.1 982.8
14 12.07 Ю 3
{5}
н/о н/о +24.3 +11.6 45 +26 +26 жарко 1007.8 982.5
15 12.07 З 4
{6}
н/о н/о +23.5 +11.9 48 +25 +25 комфорт 1007.9 982.6
16 12.07 З 3
{6}
н/о н/о +23.2 +11.3 47 +25 +25 комфорт 1007.7 982.3
17 12.07 З 3
{7}
н/о н/о +23.2 +11.6 48 +26 +26 жарко 1007.6 982.3
18 12.07 СЗ 3
{7}
н/о н/о +21.2 +11.0 52 +23 +23 комфорт 1008.1 982.6 +14.5 +25.3 0.1
19 12.07 З 2
{5}
н/о н/о +21.1 +11.2 53 +23 +23 комфорт 1008.4 982.9
20 12.07 ЮЗ 2
{4}
н/о н/о +20.1 +10.5 54 +22 +22 комфорт 1008.6 983.0
21 12.07 З 1
{4}
н/о н/о +16.9 +11.2 69 +18 +18 1009.4 983.5
22 12.07 С 1
{2}
н/о н/о +16.0 +11.4 74 +17 +17 1009.9 983.9
23 12.07 С 2
{2}
н/о н/о +14.5 +10.9 79 +14 +14 1010.5 984.3
00 13.07 С 1
{5}
н/о н/о +14.2 +10.4 78 +15 +15 1010.7 984.5
01 13.07 СВ 1
{4}
н/о н/о +14.9 +10.3 74 +15 +15 1010.9 984.8
02 13.07 ЮЗ 2
{3}
н/о н/о +14.2 +10.8 80 +14 +14 1011.3 985.1
03 13.07 Ю 1
{3}
н/о н/о +13.8 +11.3 85 +14 +14 1011.6 985.3
04 13.07 ЮЗ 2
{3}
н/о н/о +14.3 +11.6 84 +14 +14 1011.6 985.4
05 13.07 Ю 2
{3}
н/о н/о +15.5 +11.1 75 +15 +15 1011.7 985.6
06 13.07 Ю 1
{4}
н/о н/о +15.9 +10.0 68 +17 +17 1011.7 985.6 +13.4 +21.5
07 13.07 Ю 2
{3}
н/о н/о +17.1 +10.7 66 +17 +17 1011.9 985.9
08 13.07 Ю 2
{4}
н/о н/о +18.4 +10.8 61 +19 +19 1012.0 986.1
09 13.07 Ю 2
{5}
н/о н/о +19.7 +10.7 56 +22 +22 комфорт 1011.6 985.9
10 13.07 Ю 2
{4}
н/о н/о +21.1 +10.9 52 +23 +23 комфорт 1011.3 985.7
11 13.07 Ю 2
{5}
н/о н/о +22.0 +11.4 51 +24 +24 комфорт 1011.1 985.6
12 13.07 ЮВ 2
{5}
н/о н/о +22.9 +10.7 46 +25 +25 комфорт 1010.6 985.1
13 13.07 ЮВ 1
{4}
н/о н/о +24.2 +8.2 36 +25 +25 комфорт 1010.2 984.9
14 13.07 С 2
{5}
н/о н/о +24.4 +8.4 36 +25 +25 комфорт 1009.8 984.5
15 13.07 З 1
{4}
н/о н/о +25.3 +9.2 36 +26 +26 жарко 1009.6 984.4
16 13.07 Ю 4
{6}
н/о н/о +24.5 +7.6 34 +25 +25 комфорт 1009.4 984.1
17 13.07 В 4
{11}
н/о н/о +21.5 +11.8 54 +24 +24 комфорт 1010.4 984.8
18 13.07 В 4
{11}
н/о н/о +20.5 +11.4 56 +22 +22 комфорт 1011.0 985.3 +15.9 +25.4
19 13.07 СВ 2
{7}
н/о н/о +19.6 +11.4 59 +21 +21 комфорт 1011.7 985.9
20 13.07 СВ 2
{4}
н/о н/о +18.0 +11.8 67 +19 +19 1012.3 986.4
21 13.07 СВ 2
{3}
н/о н/о +16.8 +11.7 72 +17 +17 1013.1 987.1
22 13.07 СВ 2
{4}
н/о н/о +16.0 +12.0 77 +16 +16 1013.5 987.4
23 13.07 СВ 2
{4}
н/о н/о +15.4 +11.8 79 +15 +15 1013.8 987.6
00 14.07 В 1
{7}
н/о н/о +15.5 +11.5 77 +16 +16 1013.8 987.6
01 14.07 В 1
{4}
н/о н/о +14.9 +11.7 81 +15 +15 1014.1 987.9
02 14.07 В 1
{2}
н/о н/о +13.0 +11.4 90 +13 +13 1014.3 987.9
03 14.07 ЮВ 1
{2}
н/о н/о +13.2 +10.7 85 +13 +13 1014.5 988.1
04 14.07 Ю 1
{2}
н/о н/о +13.9 +11.4 85 +14 +14 1014.9 988.5
05 14.07 ЮВ 2
{3}
н/о н/о +14.2 +9.6 74 +14 +14 1014.7 988.4
06 14.07 ЮВ 1
{4}
н/о н/о +15.6 +10.2 70 +16 +16 1014.6 988.4 +12.8 +20.5
07 14.07 ЮВ 1
{2}
н/о н/о +16.9 +10.5 66 +18 +18 1014.6 988.5
08 14.07 СВ 1
{3}
н/о н/о +18.7 +10.8 60 +20 +20 1014.5 988.6
09 14.07 В 1
{4}
н/о н/о +19.6 +10.9 57 +22 +22 комфорт 1014.3 988.5
10 14.07 В 1
{4}
н/о н/о +21.0 +11.6 55 +24 +24 комфорт 1013.7 988.0
11 14.07 В 3
{6}
н/о н/о +21.5 +12.1 55 +24 +24 комфорт 1013.6 987.9
12 14.07 В 3
{6}
н/о н/о +21.3 +11.9 55 +23 +23 комфорт 1013.2 987.6
13 14.07 В 3
{5}
н/о н/о +22.0 +12.8 56 +25 +25 комфорт 1012.7 987.1
14 14.07 ЮВ 2
{6}
н/о н/о +23.2 +12.8 52 +26 +26 жарко 1012.1 986.6
15 14.07 СВ 1
{5}
н/о н/о +22.9 +12.8 53 +26 +26 жарко 1011.8 986.3
16 14.07 СВ 3
{4}
н/о н/о +22.9 +12.8 53 +26 +26 жарко 1011.5 986.0
17 14.07 В 2
{4}
н/о н/о +22.9 +13.4 55 +26 +26 жарко 1011.2 985.8
18 14.07 В 2
{7}
н/о н/о +20.1 +13.1 64 +23 +23 комфорт 1011.8 986.1 +15.5 +23.9
19 14.07 В 1
{5}
н/о н/о +17.3 +11.8 70 +18 +18 1012.3 986.3
20 14.07 В 1
{3}
н/о н/о +16.5 +12.1 75 +17 +17 1012.4 986.4
21 14.07 СВ 2
{3}
н/о н/о +15.9 +11.9 77 +16 +16 1012.7 986.6
22 14.07 С 3
{4}
н/о н/о +15.0 +8.0 63 +14 +14 1012.8 986.6
23 14.07 СЗ 2
{6}
н/о н/о +15.8 +5.4 50 +16 +16 1013.1 987.0
00 15.07 СЗ 2
{6}
н/о н/о +13.4 +7.8 69 +13 +13 1013.5 987.1
01 15.07 СЗ 3
{6}
н/о н/о +11.8 +8.3 79 +10 +10 1013.6 987.1
02 15.07
{8}
н/о н/о +12.0 +7.1 72 1013.5 987.0
03 15.07 ЮЗ 2
{3}
н/о н/о +11.8 +7.5 75 +11 +11 1013.4 986.9
04 15.07 ЮВ 2
{4}
н/о н/о +11.2 +7.5 78 +10 +10 1013.5 986.9
05 15.07 ЮВ 1
{3}
н/о н/о +11.7 +7.6 76 +12 +12 1013.8 987.3
06 15.07 В 1
{8}
н/о н/о +12.2 +6.7 69 +12 +12 1013.9 987.4 +11.2 +20.1
07 15.07 В 1
{3}
н/о н/о +12.9 +5.8 62 +13 +13 1013.9 987.5
08 15.07 С 4
{6}
н/о н/о +13.6 +6.2 61 +12 +12 1013.8 987.5
09 15.07 С 7
{10}
н/о н/о +14.7 +5.2 53 +13 +13 1013.4 987.2
10 15.07 СВ 6
{10}
н/о н/о +16.3 +6.5 52 +15 +15 1012.8 986.7
11 15.07 С 6
{10}
н/о н/о +17.6 +6.2 47 +17 +17 1012.3 986.4
12 15.07 З 2
{10}
н/о н/о +16.9 +6.1 49 +17 +17 1012.1 986.1
13 15.07 СВ 2
{8}
н/о н/о +17.9 +6.5 47 +18 +18 1011.9 986.0
14 15.07 Ю 2
{5}
н/о н/о +20.1 +6.5 41 +22 +22 комфорт 1011.0 985.3
15 15.07 Ю 2
{5}
н/о н/о +18.4 +7.2 48 +19 +19 1010.9 985.1
16 15.07 С 2
{6}
н/о н/о +17.9 +7.4 50 +18 +18 1010.6 984.7
17 15.07 ЮЗ 2
{4}
н/о н/о +16.1 +10.0 67 +16 +16 1010.5 984.5
18 15.07 ЮВ 1
{8}
н/о н/о +15.4 +11.6 78 +16 +16 1010.4 984.3 +12.1 +20.4
19 15.07 С 1
{3}
н/о н/о +15.6 +9.5 67 +16 +16 1010.6 984.5
20 15.07 ЮЗ 2
{6}
н/о н/о +13.5 +10.1 80 +13 +13 1011.7 985.4 0.6
21 15.07 СЗ 2
{7}
н/о н/о +11.9 +8.9 82 +11 +11 1012.3 985.8 0.5
22 15.07 СЗ 3
{5}
н/о н/о +12.2 +8.5 78 +11 +11 1012.2 985.8
23 15.07 СЗ 3
{5}
н/о н/о +11.8 +8.7 81 +10 +10 1012.3 985.8
00 16.07 СЗ 2
{7}
н/о н/о +11.2 +8.1 81 +10 +10 1012.6 986.1
01 16.07 СЗ 3
{5}
н/о н/о +11.3 +7.4 77 +10 +10 1013.0 986.5
02 16.07 С 3
{6}
н/о н/о +10.2 +6.2 76 +8 +8 1013.4 986.8
03 16.07 СЗ 3
{8}
н/о н/о +9.7 +3.9 67 +8 +8 1013.8 987.1
04 16.07 СЗ 7
{10}
н/о н/о +10.5 +4.0 64 +7 +7 1013.4 986.8
05 16.07 СЗ 7
{11}
н/о н/о +11.1 +3.9 61 +8 +8 1013.4 986.8
06 16.07 С 6
{11}
н/о н/о +12.5 +4.0 56 +10 +10 1013.4 987.0 +9.6 +15.6 1
07 16.07 С 6
{11}
н/о н/о +13.4 +4.3 54 +11 +11 1013.4 987.1
08 16.07 С 4
{10}
н/о н/о +14.6 +5.2 53 +14 +14 1013.3 987.1
09 16.07 С 5
{9}
н/о н/о +16.3 +6.5 52 +15 +15 1013.4 987.3
10 16.07 С 6
{11}
н/о н/о +16.9 +6.4 50 +16 +16 1013.2 987.2
11 16.07 С 6
{10}
н/о н/о +17.8 +7.0 49 +17 +17 1012.9 986.9
12 16.07
{11}
н/о н/о +17.9 +7.4 50 1012.7 986.8
13 16.07 СВ 3
{7}
н/о н/о +18.6 +7.7 49 +19 +19 1012.7 986.8
14 16.07 СВ 3
{6}
н/о н/о +18.3 +6.8 47 +19 +19 1012.8 986.9
15 16.07 СВ 2
{5}
н/о н/о +19.0 +7.5 47 +20 +20 1012.7 986.9
16 16.07 С 2
{4}
н/о н/о +19.0 +7.8 48 +20 +20 1012.7 986.9
17 16.07 Ю 2
{3}
н/о н/о +18.9 +7.1 46 +20 +20 1012.8 986.9
18 16.07 Ю 1
{7}
н/о н/о +19.3 +7.7 47 +21 +21 комфорт 1012.6 986.8 +12.5 +20.4
19 16.07 Ю 1
{2}
н/о н/о +18.7 +7.2 47 +20 +20 1012.7 986.8
20 16.07 ЮЗ 1
{3}
н/о н/о +16.6 +8.6 59 +18 +18 1013.0 987.0
21 16.07 СЗ 2
{2}
н/о н/о +14.7 +7.5 62 +14 +14 1013.5 987.3
22 16.07 С 1
{2}
н/о н/о +13.3 +7.3 67 +14 +14 1013.9 987.5
23 16.07 З 1
{2}
н/о н/о +12.8 +7.3 69 +13 +13 1014.0 987.6
00 17.07 СЗ 1
{3}
н/о н/о +11.3 +7.6 78 +11 +11 1014.3 987.7
01 17.07 С 2
{2}
н/о н/о +10.1 +6.5 78 +9 +9 1014.3 987.6
03 17.07 СВ 1
{1}
н/о н/о +9.8 +6.9 82 +9 +9 1013.9 987.2
04 17.07 В 1
{1}
н/о н/о +10.5 +7.7 83 +10 +10 1013.6 987.0
05 17.07 СВ 1
{3}
н/о н/о +11.4 +8.1 80 +11 +11 1013.5 987.0
06 17.07 СВ 1
{3}
н/о н/о +11.9 +9.1 83 +12 +12 1013.3 986.8 +9.5 +19.7
07 17.07 В 1
{2}
н/о н/о +14.0 +9.8 76 +14 +14 1012.7 986.4
08 17.07 СВ 1
{2}
н/о н/о +16.2 +9.6 65 +17 +17 1012.3 986.2
09 17.07 В 2
{3}
н/о н/о +18.8 +10.1 57 +20 +20 1011.7 985.9
10 17.07 Ю 2
{4}
н/о н/о +20.0 +9.0 49 +22 +22 комфорт 1011.3 985.6

 

Местоположение метеостанции Хамар аэропорт (Норвегия): широта 60.82 долгота 11.07 высота над уровнем моря 221 м.

В архиве по умолчанию представлена погода в Хамар аэропорту за последнюю неделю. Архивные данные за месяц целиком и за предыдущие месяцы, начиная с января 2011 года, Вы можете получить, выбрав интересующий диапазон дат из раскрывающегося списка и нажав кнопку "Ввод!".


*Определитесь, кто Вы:
робот инопланетянин человек

Внимание! Время в таблицах - всемирное. Для получения местного времени необходимо прибавить поправку, которая равна 1 ч.

Смотрите также архив погоды в соседних городах и на ближайших метеорологических станциях:

Погода в Хамаре (Норвегия) (3 км)
Погода в Кисе Па Хедмарк (Норвегия) (15 км)
Погода в Апельсволле (Норвегия) (17 км)
Погода в Лиллехаммере (Норвегия) (44 км)
Погода в Рена аэропорту (Норвегия) (44 км)
Погода во Флиса (Норвегия) (56 км)
Погода в Вест-Торпе (Норвегия) (58 км)
Погода в Эвенстаде (Норвегия) (67 км)
Погода в Осло аэропорту (Норвегия) (68 км)
Погода в Хакадале (Норвегия) (79 км)

Пояснения к столбцам:

Ветер - указаны скорость ветра в м/с - средняя за 10 мин, порывы в срок и между сроками (в фигурных скобках) и направление, откуда дует ветер: С - северный, СВ - северо-восточный, В - восточный, ЮВ - юго-восточный, Ю - южный, ЮЗ - юго-западный, З - западный, СЗ - северо-западный.
Видимость - горизонтальная дальность видимости в метрах или километрах. При видимости от 1 до 10 км при отсутствии осадков обычно наблюдается дымка, при ухудшении видимости до 1 км и менее - туман. В сухую погоду видимость может ухудшаться дымом, пылью или мглою.
Явления - указаны атмосферные явления, наблюдавшиеся в срок или в последний час перед сроком; фигурными скобками обозначены явления, наблюдавшиеся между сроками (за 1-3 часа до срока); квадратными скобками обозначены град или гололедные отложения с указанием их диаметра в мм.
Облачность - указаны через наклонную черту общая и нижняя облачность в баллах и высота нижней границы облаков в метрах; квадратными скобками обозначены формы облаков: Ci - перистые, Cs - перисто-слоистые, Cc - перисто-кучевые, Ac - высококучевые, As - высокослоистые, Sc - слоисто-кучевые, Ns - слоисто-дождевые, Cu - кучевые, Cb - кучево-дождевые. Подробнее классификацию облаков см. в Атласе облаков (PDF).
T - Температура воздуха - температура, измеренная на высоте 2 м над землей.
Td - Температура точки росы - температура, при понижении до которой содержащийся в воздухе водяной пар достигнет насыщения.
f - Относительная влажность воздуха - влажноcть воздуха, измеренная на высоте 2 м над землей.
Te - Эффективная температура - температура, которую ощущает одетый по сезону человек в тени. Характеристика душности погоды. При расчете учитывается влияние влажности воздуха и скорости ветра на теплоощущения человека.
Tes - Эффективная температура на солнце - температура, которую ощущает человек, с поправкой на солнечный нагрев. Характеристика знойности погоды. Зависит от высоты солнца над горизонтом, облачности и скорости ветра. Ночью, в пасмурную погоду, а также при ветре 12 м/с и более поправка равна нулю.
P - Атмосферное давление - приведенное к уровню моря атмосферное давление.
Po - Атмосферное давление - измеренное на уровне метеостанции атмосферное давление.
Tmin - Минимальная температура - минимум температуры воздуха на высоте 2 м над землей.
Tmax - Максимальная температура - максимум температуры воздуха на высоте 2 м над землей.
R - Количество осадков - Количество выпавших осадков за период времени, мм. При наведении курсора мыши на число - период времени, за который выпало указанное количество осадков.
R24 - Количество осадков - Количество выпавших осадков за 24 часа, мм.
S - Снежный покров - Высота снежного покрова, см. При наведении курсора мыши на число - состояние снежного покрова и степень покрытия местности в баллах.